• In Hungary
  • List of Countries
  • For 7 days
  • Water Temperature
  • Satellite Maps
  • Weather Map
  • News
  • Weather Widgets
  • user-avatar
    Login

    Hourly Weather Chumaky

    Today, 24 May, Thursday

    Time Temperature Precipitation Wind Pressure Humidity
    00:00 +19°C° 0 mm 2 mps 749 mmHg 87%
    01:00 +19°C° 0 mm 2 mps 749 mmHg 88%
    02:00 +19°C° 0 mm 2 mps 749 mmHg 89%
    03:00 +18°C° 0 mm 2 mps 749 mmHg 91%
    04:00 +19°C° 0 mm 2 mps 748 mmHg 91%
    05:00 +19°C° 0 mm 2 mps 748 mmHg 91%
    06:00 +19°C° 0 mm 2 mps 748 mmHg 91%
    07:00 +20°C° 0 mm 2 mps 748 mmHg 84%
    08:00 +23°C° 0 mm 2 mps 748 mmHg 78%
    09:00 +24°C° 0 mm 2 mps 748 mmHg 70%
    10:00 +25°C° 0 mm 2 mps 748 mmHg 66%
    11:00 +26°C° 0 mm 2 mps 748 mmHg 63%
    12:00 +27°C° 0 mm 3 mps 748 mmHg 59%
    13:00 +27°C° 0.6 mm 2 mps 748 mmHg 58%
    14:00 +27°C° 0.6 mm 2 mps 747 mmHg 58%
    15:00 +28°C° 0 mm 2 mps 747 mmHg 54%
    16:00 +27°C° 0.6 mm 2 mps 747 mmHg 58%
    17:00 +26°C° 0.6 mm 2 mps 747 mmHg 61%
    18:00 +26°C° 0.6 mm 2 mps 747 mmHg 65%
    19:00 +24°C° 0.6 mm 2 mps 747 mmHg 70%
    20:00 +23°C° 0.6 mm 2 mps 747 mmHg 75%
    21:00 +21°C° 0.6 mm 2 mps 747 mmHg 79%
    22:00 +20°C° 0 mm 2 mps 747 mmHg 81%
    23:00 +19°C° 0 mm 2 mps 746 mmHg 83%

    Tomorrow, 25 May, Friday

    Time Temperature Precipitation Wind Pressure Humidity
    00:00 +19°C° 0 mm 2 mps 746 mmHg 85%
    01:00 +18°C° 0 mm 2 mps 746 mmHg 87%
    02:00 +18°C° 0 mm 2 mps 746 mmHg 89%
    03:00 +17°C° 0 mm 2 mps 746 mmHg 90%
    04:00 +18°C° 0 mm 2 mps 746 mmHg 91%
    05:00 +18°C° 0 mm 2 mps 746 mmHg 91%
    06:00 +18°C° 0 mm 2 mps 746 mmHg 91%
    07:00 +19°C° 0 mm 3 mps 746 mmHg 87%
    08:00 +20°C° 0 mm 3 mps 746 mmHg 82%
    09:00 +21°C° 0 mm 3 mps 746 mmHg 78%
    10:00 +22°C° 0 mm 3 mps 747 mmHg 76%
    11:00 +22°C° 0 mm 4 mps 747 mmHg 74%
    12:00 +23°C° 0 mm 4 mps 747 mmHg 72%
    13:00 +23°C° 0.3 mm 4 mps 747 mmHg 73%
    14:00 +23°C° 0.3 mm 5 mps 747 mmHg 74%
    15:00 +22°C° 0.3 mm 5 mps 747 mmHg 75%
    16:00 +22°C° 0 mm 6 mps 747 mmHg 75%
    17:00 +22°C° 0 mm 6 mps 747 mmHg 76%
    18:00 +21°C° 0 mm 6 mps 747 mmHg 76%
    19:00 +20°C° 0 mm 6 mps 747 mmHg 79%
    20:00 +20°C° 0 mm 5 mps 748 mmHg 82%
    21:00 +19°C° 0 mm 5 mps 748 mmHg 85%
    22:00 +19°C° 0 mm 5 mps 748 mmHg 85%
    23:00 +17°C° 0 mm 6 mps 748 mmHg 85%

    Day after tomorrow, 26 May, Saturday

    Time Temperature Precipitation Wind Pressure Humidity
    00:00 +17°C° 0 mm 6 mps 748 mmHg 84%
    01:00 +17°C° 0 mm 6 mps 749 mmHg 83%
    02:00 +17°C° 0 mm 7 mps 749 mmHg 82%
    03:00 +17°C° 0 mm 7 mps 749 mmHg 81%
    04:00 +17°C° 0 mm 7 mps 749 mmHg 79%
    05:00 +16°C° 0 mm 8 mps 750 mmHg 77%
    06:00 +15°C° 0 mm 8 mps 750 mmHg 75%
    07:00 +15°C° 0 mm 8 mps 751 mmHg 70%
    08:00 +15°C° 0 mm 8 mps 752 mmHg 66%
    09:00 +15°C° 0 mm 9 mps 752 mmHg 62%
    10:00 +16°C° 0 mm 9 mps 753 mmHg 60%
    11:00 +17°C° 0 mm 9 mps 753 mmHg 58%
    12:00 +17°C° 0 mm 9 mps 754 mmHg 56%
    13:00 +18°C° 0 mm 9 mps 754 mmHg 54%
    14:00 +19°C° 0 mm 9 mps 754 mmHg 52%
    15:00 +19°C° 0 mm 9 mps 754 mmHg 50%
    16:00 +19°C° 0 mm 9 mps 754 mmHg 51%
    17:00 +18°C° 0 mm 8 mps 754 mmHg 52%
    18:00 +18°C° 0 mm 8 mps 755 mmHg 53%
    19:00 +16°C° 0 mm 7 mps 755 mmHg 54%
    20:00 +15°C° 0 mm 7 mps 755 mmHg 55%
    21:00 +14°C° 0 mm 7 mps 756 mmHg 55%
    22:00 +14°C° 0 mm 7 mps 756 mmHg 55%
    23:00 +12°C° 0 mm 7 mps 756 mmHg 54%

    27 May, Sunday

    Time Temperature Precipitation Wind Pressure Humidity
    00:00 +11°C° 0 mm 7 mps 756 mmHg 54%
    01:00 +11°C° 0 mm 7 mps 756 mmHg 54%
    02:00 +11°C° 0 mm 7 mps 756 mmHg 55%
    03:00 +10°C° 0 mm 7 mps 756 mmHg 56%
    04:00 +10°C° 0 mm 7 mps 757 mmHg 58%
    05:00 +10°C° 0 mm 7 mps 757 mmHg 60%
    06:00 +9°C° 0 mm 7 mps 757 mmHg 62%
    07:00 +11°C° 0 mm 7 mps 757 mmHg 59%
    08:00 +12°C° 0 mm 8 mps 757 mmHg 56%
    09:00 +13°C° 0 mm 8 mps 757 mmHg 53%
    10:00 +16°C° 0 mm 8 mps 757 mmHg 51%
    11:00 +17°C° 0 mm 8 mps 757 mmHg 49%
    12:00 +18°C° 0 mm 8 mps 756 mmHg 47%
    13:00 +20°C° 0 mm 7 mps 756 mmHg 46%
    14:00 +20°C° 0 mm 7 mps 756 mmHg 46%
    15:00 +20°C° 0 mm 7 mps 756 mmHg 46%
    16:00 +20°C° 0 mm 6 mps 755 mmHg 48%
    17:00 +20°C° 0 mm 6 mps 755 mmHg 50%
    18:00 +19°C° 0 mm 6 mps 755 mmHg 53%
    19:00 +17°C° 0 mm 5 mps 755 mmHg 56%
    20:00 +16°C° 0 mm 5 mps 755 mmHg 59%
    21:00 +14°C° 0 mm 5 mps 754 mmHg 62%
    22:00 +14°C° 0 mm 5 mps 754 mmHg 60%
    23:00 +14°C° 0 mm 5 mps 754 mmHg 59%

    28 May, Monday

    Time Temperature Precipitation Wind Pressure Humidity
    00:00 +13°C° 0 mm 5 mps 754 mmHg 58%
    01:00 +13°C° 0 mm 5 mps 754 mmHg 58%
    02:00 +12°C° 0 mm 5 mps 754 mmHg 59%
    03:00 +12°C° 0 mm 5 mps 754 mmHg 59%
    04:00 +12°C° 0 mm 5 mps 754 mmHg 61%
    05:00 +12°C° 0 mm 5 mps 754 mmHg 62%
    06:00 +12°C° 0 mm 5 mps 754 mmHg 64%
    07:00 +14°C° 0 mm 5 mps 754 mmHg 59%
    08:00 +16°C° 0 mm 6 mps 754 mmHg 53%
    09:00 +19°C° 0 mm 6 mps 754 mmHg 48%
    10:00 +20°C° 0 mm 6 mps 754 mmHg 45%
    11:00 +21°C° 0 mm 7 mps 754 mmHg 43%
    12:00 +22°C° 0 mm 7 mps 754 mmHg 41%
    13:00 +23°C° 0 mm 6 mps 754 mmHg 41%
    14:00 +23°C° 0 mm 6 mps 754 mmHg 41%
    15:00 +24°C° 0 mm 6 mps 754 mmHg 42%
    16:00 +23°C° 0 mm 6 mps 754 mmHg 45%
    17:00 +23°C° 0 mm 5 mps 754 mmHg 48%
    18:00 +22°C° 0 mm 5 mps 753 mmHg 51%
    19:00 +21°C° 0 mm 5 mps 754 mmHg 55%
    20:00 +19°C° 0 mm 5 mps 754 mmHg 59%
    21:00 +16°C° 0 mm 5 mps 754 mmHg 62%
    22:00 +16°C° 0 mm 5 mps 754 mmHg 64%
    23:00 +15°C° 0 mm 5 mps 754 mmHg 65%

    29 May, Tuesday

    Time Temperature Precipitation Wind Pressure Humidity
    00:00 +15°C° 0 mm 5 mps 754 mmHg 67%
    01:00 +14°C° 0 mm 5 mps 755 mmHg 70%
    02:00 +14°C° 0 mm 5 mps 755 mmHg 74%
    03:00 +14°C° 0 mm 5 mps 755 mmHg 77%
    04:00 +14°C° 0 mm 6 mps 755 mmHg 77%
    05:00 +14°C° 0 mm 6 mps 756 mmHg 77%
    06:00 +14°C° 0 mm 7 mps 756 mmHg 76%
    07:00 +15°C° 0 mm 7 mps 756 mmHg 69%
    08:00 +16°C° 0 mm 8 mps 757 mmHg 61%
    09:00 +17°C° 0 mm 8 mps 757 mmHg 53%
    10:00 +18°C° 0 mm 8 mps 757 mmHg 50%
    11:00 +20°C° 0 mm 8 mps 757 mmHg 47%
    12:00 +21°C° 0 mm 8 mps 757 mmHg 44%
    13:00 +21°C° 0 mm 8 mps 757 mmHg 45%
    14:00 +21°C° 0 mm 8 mps 756 mmHg 45%
    15:00 +22°C° 0 mm 8 mps 756 mmHg 45%
    16:00 +21°C° 0 mm 7 mps 756 mmHg 47%
    17:00 +21°C° 0 mm 7 mps 756 mmHg 49%
    18:00 +20°C° 0 mm 6 mps 756 mmHg 51%
    19:00 +19°C° 0 mm 6 mps 756 mmHg 54%
    20:00 +16°C° 0 mm 5 mps 756 mmHg 57%
    21:00 +14°C° 0 mm 4 mps 756 mmHg 60%
    22:00 +14°C° 0 mm 4 mps 756 mmHg 60%
    23:00 +13°C° 0 mm 4 mps 755 mmHg 60%
    Show more